Regional Weather Roundup
Issued by NWS

Home | Current Version | Previous Version | Text Only | Print | Product List | Glossary Off
Versions: 1 2 3 4 5 6 7 8 9 10 11 12 13 14 15 16 17 18 19 20 21 22 23 24 25 26 27 28 29 30 31 32 33 34 35 36 37 38 39 40 41 42 43 44 45 46 47 48 49 50

132
ASUS43 KDTX 211001
RWRMI
MICHIGAN HOURLY REGIONAL WEATHER ROUNDUP
NATIONAL WEATHER SERVICE DETROIT/PONTIAC MI
600 AM EDT MON MAY 21 2018

NOTE: "FAIR" INDICATES FEW OR NO CLOUDS BELOW 12,000 FEET WITH NO
SIGNIFICANT WEATHER AND/OR OBSTRUCTION TO VISIBILITY.

MIZ047>049-052>055-059>063-066>070-074>076-081>083-211100-
SOUTHEAST LOWER MICHIGAN

CITY           SKY/WX    TMP DP  RH WIND       PRES   REMARKS
ADRIAN         CLOUDY    53  51  93 E5        30.22R
ANN ARBOR      FAIR      51  46  83 NE3       30.21R
BAD AXE        FOG       32  32 100 CALM      30.26R VSB 1/4
CARO           FOG       39  38  96 CALM      30.23F VSB 1/4
DETROIT CITY   FAIR      48  42  80 NE7       30.22S
DETROIT        MOCLDY    51  43  74 CALM      30.22R
FLINT          FAIR      45  45 100 NE7       30.22S
GROSSE ILE     FAIR      49  45  84 NE5       30.22R
HILLSDALE      CLOUDY    54  52  94 E9        30.20R FOG
HOWELL         FAIR      47  47  99 CALM      30.22R FOG

CITY           SKY/WX    TMP DP  RH WIND       PRES   REMARKS
JACKSON        FAIR      54  53  97 NE5       30.20R
LAMBERTVILLE   FAIR      52  47  82 CALM      30.21R
LANSING        FAIR      48  48 100 E5        30.21S FOG
LAPEER         FOG       39  38  99 CALM      30.24F VSB 1/4
MASON          FAIR      51  49  95 CALM      30.21S FOG
MT. CLEMENS    FAIR      45  44  99 NE10        N/A
PONTIAC        FAIR      47  45  93 NE6       30.21R
PORT HOPE        N/A     38  37  97 CALM      30.23S
PORT HURON     FAIR      36  34  93 CALM      30.25S FOG
TRI CITIES     FOG       45  44  97 NE5       30.24S VSB 3/4
MIDLAND        FAIR      39  39 100 CALM      30.23S FOG
TROY           FAIR      49  45  84 NE7       30.24R
SAGINAW HB     FOG       41  39  93 CALM      30.24S VSB 1/4
$$
MIZ043>046-050>051-056>058-064>065-071>073-077>080-211100-
SOUTHWEST LOWER MICHIGAN

CITY           SKY/WX    TMP DP  RH WIND       PRES   REMARKS
BATTLE CREEK   CLOUDY    56  55  97 E7        30.19R FOG
BENTON HARBOR  CLOUDY    57  54  89 E3        30.15S
BIG RAPIDS     FOG       43  42  97 CALM      30.22S VSB 1/4
COLDWATER      CLOUDY    56  56 100 E6        30.19R FOG
FREMONT        FAIR      50  49  99 E9        30.19S
HOLLAND        CLOUDY    54  52  93 E8        30.18S FOG
GRAND RAPIDS   MOCLDY    51  49  92 E8        30.19S
IONIA          FAIR      49  49 100 NE7       30.20S FOG
KALAMAZOO      CLOUDY    57  55  93 E3        30.19R FOG
LUDINGTON      FAIR      38  38 100 CALM      30.20S FOG
MARSHALL       CLOUDY    56  55  95 E5        30.19S
MOUNT PLEASANT FOG       45  45 100 CALM      30.23S VSB 1/2
MUSKEGON       MOCLDY    51  48  89 E6        30.18F
SOUTH HAVEN    MOCLDY    54  53  95 E5        30.16S FOG
$$
MIZ016>042-211100-
NORTHERN LOWER MICHIGAN

CITY           SKY/WX    TMP DP  RH WIND       PRES   REMARKS
ALPENA         FAIR      39  38  96 CALM      30.25R
BEAVER ISLAND  FAIR      35  32  89 CALM      30.24S
BELLAIRE       FAIR      35  34  96 CALM      30.24F
CADILLAC       FOG       36  35  97 CALM      30.23R VSB 3/4
CHARLEVOIX     FAIR      41  39  92 CALM      30.26S
FRANKFORT      FAIR      39  38  97 CALM      30.22R
GAYLORD        FAIR      38  35  89 CALM      30.24R
HARBOR SPRINGS FAIR      37  37  98 N3        30.23F
HOUGHTON LAKE  FOG       39  38  96 CALM      30.24F VSB 1/4
MANISTEE       FAIR      41  40  96 E5        30.22R
OSCODA         FAIR      36  32  87 CALM      30.24S
PELLSTON       FAIR      32  31  96 CALM      30.25S
ROGERS CITY    FAIR      38  33  80 CALM      30.25S
TRAVERSE CITY  FAIR      38  35  89 CALM      30.22F
$$
MIZ007>008-015-211100-
EASTERN UPPER MICHIGAN

CITY           SKY/WX    TMP DP  RH WIND       PRES   REMARKS
KINROSS        FAIR      43  33  68 W7        30.23S
MACKINAC ISLAN FAIR      43  37  79 SW6       30.24R
NEWBERRY       FAIR      38  37  95 CALM      30.22S
S. S. MARIE    FAIR      39  33  79 CALM      30.23S
MUNISING         N/A     42  33  70 S9        30.21R
$$
MIZ004>006-011>014-085-211100-
CENTRAL UPPER MICHIGAN

CITY           SKY/WX    TMP DP  RH WIND       PRES   REMARKS
MANISTIQUE     FAIR      33  32  96 CALM      30.23S
ESCANABA       FAIR      32  30  92 CALM      30.23S
SAWYER-GWINN   FAIR      39  30  71 CALM      30.23R
$$
MIZ001>003-009>011-084-211100-
WESTERN UPPER MICHIGAN

CITY           SKY/WX    TMP DP  RH WIND       PRES   REMARKS
IRON MOUNTAIN  FAIR      35  31  85 N5        30.22R WCI  31
HOUGHTON       FAIR      45  31  58 CALM      30.17S
COPPER HARBOR    N/A     45  34  65 W5        30.17S
IRONWOOD       FAIR      50  35  56 S8        30.20R
$$

ABBREVIATIONS USED IN REMARKS
   TC - TEMPERATURE IN CELSIUS
  WCI - WIND CHILL INDEX
   HX - HEAT INDEX
  VSB - VISIBILITY





USA.gov is the U.S. government's official web portal to all federal, state and local government web resources and services.